Home   Weather   Glasgow   Past weeks
Flag for United Kingdom

Past Weather in Glasgow, Scotland, United Kingdom — Yesterday and Last 2 Weeks

Now
37 °F

More clouds than sun.


Feels Like: 32 °F
Forecast: 37 / 32 °F
Wind: 7 mph from East

Location: Glasgow Airport

Current Time: Jan 19, 2019 at 11:00:42 am

Latest Report: Jan 19, 2019 at 10:20 am


Visibility: 3 mi

Pressure: 29.80 "Hg

Humidity: 93%

Dew Point: 36 °F

Location of GlasgowLocation

Past Weather in Glasgow — Graph

°F

Glasgow Temperature Yesterday

Maximum temperature yesterday: 37 °F (at 2:50 pm)
Minimum temperature yesterday: 25 °F (at 2:50 am)
Average temperature yesterday: 32 °F

High & Low Weather Summary for the Past Weeks

 TemperatureHumidityPressure
High52 °F (Jan 7, 5:20 am)100% (Jan 4, 9:20 am)30.74 "Hg (Jan 4, 9:20 am)
Low25 °F (Jan 9, 8:20 am)61% (Jan 17, 12:20 pm)29.39 "Hg (Jan 16, 5:50 am)
Average43 °F86%30.15 "Hg
* Reported Jan 4 9:20 am — Jan 19 9:50 am, Glasgow. Weather by CustomWeather, © 2019

Note: Actual official high and low records may vary slightly from our data, if they occured in-between our weather recording intervals... More about our weather records

Advertising

Glasgow Weather History for the Previous 24 Hours

Scroll right to see more
 ConditionsComfort  
Time TempWeatherWind HumidityBarometerVisibility
9:50 am
Sat, Jan 19
37 °FOvercast.6 mph93%29.80 "Hg3 mi
9:20 am36 °FFog.6 mph100%29.77 "Hg2 mi
8:50 am36 °FFog.5 mph93%29.77 "Hg3 mi
8:20 am36 °FFog.8 mph93%29.77 "Hg2 mi
7:50 am36 °FFog.8 mph93%29.74 "Hg2 mi
7:20 am34 °FFog.5 mph93%29.74 "Hg2 mi
6:50 am34 °FPartly cloudy.6 mph93%29.74 "Hg2 mi
5:50 am36 °FOvercast.5 mph93%29.74 "Hg4 mi
5:20 am36 °FOvercast.5 mph93%29.74 "Hg4 mi
4:50 am36 °FOvercast.7 mph93%29.74 "Hg3 mi
4:20 am36 °FLight rain. Overcast.7 mph93%29.74 "Hg4 mi
3:50 am36 °FLight rain. Overcast.9 mph93%29.74 "Hg4 mi
3:20 am36 °FLight rain. Overcast.9 mph93%29.74 "Hg4 mi
2:50 am36 °FLight rain. Overcast.9 mph93%29.74 "Hg4 mi
2:20 am36 °FOvercast.9 mph93%29.74 "Hg4 mi
1:50 am36 °FLight rain. Overcast.6 mph93%29.74 "Hg4 mi
12:50 am36 °FDrizzle. Overcast.10 mph93%29.74 "Hg3 mi
12:20 am36 °FLight rain. Overcast.9 mph93%29.74 "Hg3 mi
11:50 pm
Fri, Jan 18
36 °FLight rain. Overcast.9 mph93%29.74 "Hg4 mi
11:20 pm36 °FLight rain. Low clouds.12 mph93%29.74 "Hg4 mi
10:50 pm36 °FLight rain. Overcast.9 mph93%29.74 "Hg4 mi
10:20 pm34 °FLow clouds.9 mph100%29.74 "HgN/A
9:50 pm34 °FLight rain. Overcast.10 mph100%29.74 "Hg4 mi
9:20 pm34 °FLight rain. Mostly cloudy.10 mph93%29.74 "Hg5 mi
8:20 pm34 °FLight rain. Mostly cloudy.10 mph93%29.74 "Hg6 mi
7:50 pm36 °FLight rain. Overcast.9 mph87%29.77 "Hg3 mi
7:20 pm36 °FLight rain. Mostly cloudy.9 mph81%29.77 "HgN/A
6:50 pm36 °FLight rain. Overcast.9 mph81%29.77 "HgN/A
6:20 pm36 °FLight rain. Overcast.9 mph81%29.77 "HgN/A
5:50 pm36 °FOvercast.10 mph75%29.77 "HgN/A
5:20 pm36 °FOvercast.8 mph75%29.77 "HgN/A
4:50 pm36 °FPassing clouds.9 mph75%29.77 "HgN/A
4:20 pm36 °FPartly sunny.10 mph75%29.77 "HgN/A
3:50 pm36 °FLight rain. Mostly cloudy.10 mph81%29.77 "HgN/A
3:20 pm37 °FLight rain. Partly sunny.9 mph70%29.80 "HgN/A
2:50 pm37 °FPartly sunny.9 mph70%29.80 "HgN/A
1:50 pm36 °FPartly sunny.9 mph75%29.80 "HgN/A
1:20 pm36 °FChilly.9 mph70%29.83 "HgN/A
12:50 pm36 °FChilly.9 mph70%29.83 "HgN/A
11:50 am36 °FChilly.10 mph70%29.86 "HgN/A
11:20 am34 °FChilly.10 mph75%29.86 "HgN/A
Weather by CustomWeather, © 2019

See weather overview